SM4TYA-13 Weather Reports


time (UTC)temp
C
wind
direction
speed
KPH
gust
KPH
rain 1hr
cm
rain 24hr
cm
rain mn
cm
humidity
%
barometer
mb
20260508023636 -2 100 0.0 1.6 0.00 0.00 0.00 78 1022.0
20260508022736 -2 100 0.0 1.6 0.00 0.00 0.00 78 1022.0
20260508021836 -2 98 1.6 4.8 0.00 0.00 0.00 77 1022.0
20260508020936 -2 103 1.6 3.2 0.00 0.00 0.00 78 1021.9
20260508020036 -2 95 1.6 4.8 0.00 0.00 0.00 77 1021.9
20260508015345 -2 96 1.6 3.2 0.00 0.00 0.00 78 1021.8
20260508014236 -2 89 1.6 3.2 0.00 0.00 0.00 78 1021.8
20260508013336 -2 94 1.6 3.2 0.00 0.00 0.00 78 1021.7
20260508012436 -2 106 0.0 3.2 0.00 0.00 0.00 79 1021.7
20260508011536 -2 96 1.6 3.2 0.00 0.00 0.00 79 1021.7
20260508010636 -2 96 1.6 3.2 0.00 0.00 0.00 79 1021.6
20260508005736 -1 102 1.6 3.2 0.00 0.00 0.00 79 1021.5
20260508004836 -1 103 1.6 4.8 0.00 0.00 0.00 80 1021.4
20260508004149 -1 99 1.6 4.8 0.00 0.00 0.00 80 1021.3
20260508003246 -1 100 1.6 3.2 0.00 0.00 0.00 80 1021.3
20260508002135 -1 95 1.6 3.2 0.00 0.00 0.00 80 1021.2
20260508001236 -1 94 1.6 4.8 0.00 0.00 0.00 81 1021.1
20260508000335 0 91 1.6 3.2 0.00 0.00 0.00 81 1021.1
20260507235436 -1 92 1.6 3.2 0.00 0.00 0.00 81 1021.0
20260507234536 -1 91 1.6 3.2 0.00 0.00 0.00 80 1021.0
20260507233636 0 91 1.6 3.2 0.00 0.00 0.00 78 1020.9
20260507232736 0 92 1.6 3.2 0.00 0.00 0.00 78 1020.9
20260507232045 0 92 1.6 3.2 0.00 0.00 0.00 78 1020.9
20260507230936 0 94 1.6 3.2 0.00 0.00 0.00 76 1020.7
20260507230036 0 95 1.6 3.2 0.00 0.00 0.00 75 1020.7
20260507225136 0 93 1.6 4.8 0.00 0.00 0.00 74 1020.6
20260507215736 3 91 0.0 1.6 0.00 0.00 0.00 64 1020.2
20260507215048 3 91 1.6 3.2 0.00 0.00 0.00 68 1020.2
20260507213935 3 119 0.0 3.2 0.00 0.00 0.00 64 1020.0
20260507213036 4 132 1.6 3.2 0.00 0.00 0.00 62 1019.8
20260507212136 5 124 0.0 1.6 0.00 0.00 0.00 60 1019.8
20260507211236 5 124 0.0 1.6 0.00 0.00 0.00 59 1019.7
20260507210336 5 0 0.0 0.0 0.00 0.00 0.00 57 1019.4
20260507205435 5 124 0.0 1.6 0.00 0.00 0.00 54 1019.2
20260507204536 5 125 1.6 3.2 0.00 0.00 0.00 53 1019.1
20260507203636 5 125 1.6 4.8 0.00 0.00 0.00 53 1019.1
20260507202736 5 119 0.0 3.2 0.00 0.00 0.00 50 1018.8
20260507201835 4 116 0.0 3.2 0.00 0.00 0.00 47 1018.9
20260507200936 3 153 0.0 4.8 0.00 0.00 0.00 50 1018.7
20260507200036 4 95 0.0 3.2 0.00 0.00 0.00 50 1018.4
20260507195136 4 95 0.0 3.2 0.00 0.00 0.00 45 1018.3
20260507194236 5 95 1.6 3.2 0.00 0.00 0.00 43 1018.3
20260507193336 5 101 1.6 3.2 0.00 0.00 0.00 43 1018.1
20260507192436 6 101 0.0 1.6 0.00 0.00 0.00 40 1018.0
20260507191536 6 101 0.0 1.6 0.00 0.00 0.00 39 1017.8
20260507190846 7 0 0.0 0.0 0.00 0.00 0.00 37 1017.7
20260507185735 7 0 0.0 0.0 0.00 0.00 0.00 36 1017.4
20260507184836 8 0 0.0 0.0 0.00 0.00 0.00 34 1017.4
20260507183936 9 0 0.0 0.0 0.00 0.00 0.00 32 1017.4
20260507183245 10 0 0.0 0.0 0.00 0.00 0.00 31 1017.3
20260507182347 10 135 0.0 1.6 0.00 0.00 0.00 29 1017.3
20260507181236 11 140 0.0 4.8 0.00 0.00 0.00 26 1017.1
20260507180336 12 126 0.0 4.8 0.00 0.00 0.00 24 1017.1
20260507175436 12 113 0.0 3.2 0.00 0.00 0.00 23 1017.0
20260507174535 13 113 0.0 1.6 0.00 0.00 0.00 22 1017.0
20260507173849 14 112 0.0 3.2 0.00 0.00 0.00 21 1016.9
20260507172736 13 103 1.6 3.2 0.00 0.00 0.00 20 1016.8
20260507171836 13 115 3.2 8.0 0.00 0.00 0.00 20 1016.7
20260507170936 15 107 1.6 6.4 0.00 0.00 0.00 20 1016.6
20260507170035 15 77 1.6 6.4 0.00 0.00 0.00 19 1016.6
20260507165135 14 97 1.6 8.0 0.00 0.00 0.00 20 1016.6
20260507164236 15 57 1.6 6.4 0.00 0.00 0.00 19 1016.5
20260507163336 15 105 1.6 8.0 0.00 0.00 0.00 20 1016.4
20260507162436 15 96 3.2 11.3 0.00 0.00 0.00 18 1016.5
20260507161745 15 119 3.2 11.3 0.00 0.00 0.00 18 1016.3
20260507160636 15 145 3.2 9.7 0.00 0.00 0.00 19 1016.2
20260507155945 14 150 3.2 6.4 0.00 0.00 0.00 19 1016.2
20260507154836 15 101 1.6 9.7 0.00 0.00 0.00 16 1016.2
20260507153935 14 48 4.8 16.1 0.00 0.00 0.00 17 1016.1
20260507153036 15 176 4.8 11.3 0.00 0.00 0.00 21 1016.2
20260507152135 14 262 3.2 9.7 0.00 0.00 0.00 20 1016.1
20260507151236 15 323 3.2 12.9 0.00 0.00 0.00 20 1016.1
20260507150336 14 117 3.2 9.7 0.00 0.00 0.00 17 1016.0
20260507145436 14 172 6.4 14.5 0.00 0.00 0.00 18 1015.9
20260507144749 13 220 4.8 9.7 0.00 0.00 0.00 18 1015.9
20260507143846 14 100 3.2 9.7 0.00 0.00 0.00 17 1015.9
20260507142949 14 101 3.2 8.0 0.00 0.00 0.00 18 1015.9
20260507141836 14 100 4.8 17.7 0.00 0.00 0.00 18 1015.9
20260507140935 14 34 3.2 12.9 0.00 0.00 0.00 20 1015.9
20260507140035 13 95 4.8 11.3 0.00 0.00 0.00 17 1015.8
20260507135136 14 71 6.4 17.7 0.00 0.00 0.00 16 1015.8
20260507134445 14 50 4.8 17.7 0.00 0.00 0.00 17 1015.6
20260507133336 13 173 4.8 9.7 0.00 0.00 0.00 16 1015.7
20260507132645 13 131 4.8 11.3 0.00 0.00 0.00 16 1015.7
20260507131535 13 53 8.0 22.5 0.00 0.00 0.00 17 1015.6
20260507130636 13 70 6.4 17.7 0.00 0.00 0.00 20 1015.5
20260507125947 13 94 4.8 17.7 0.00 0.00 0.00 20 1015.5
20260507125049 13 53 3.2 17.7 0.00 0.00 0.00 20 1015.5
20260507123935 13 87 4.8 14.5 0.00 0.00 0.00 20 1015.5
20260507123035 13 58 6.4 14.5 0.00 0.00 0.00 21 1015.4
20260507122136 13 50 4.8 16.1 0.00 0.00 0.00 21 1015.4
20260507121235 13 116 4.8 16.1 0.00 0.00 0.00 19 1015.4
20260507120336 13 73 3.2 6.4 0.00 0.00 0.00 20 1015.4
20260507115648 13 14 3.2 6.4 0.00 0.00 0.00 22 1015.4
20260507114536 12 254 3.2 9.7 0.00 0.00 0.00 23 1015.4
20260507113636 12 270 3.2 9.7 0.00 0.00 0.00 26 1015.4
20260507112735 12 283 4.8 8.0 0.00 0.00 0.00 25 1015.4
20260507111836 12 270 6.4 11.3 0.00 0.00 0.00 26 1015.4
20260507110936 12 268 4.8 12.9 0.00 0.00 0.00 25 1015.2
20260507110035 12 288 3.2 9.7 0.00 0.00 0.00 28 1015.2
20260507105350 12 289 3.2 6.4 0.00 0.00 0.00 25 1015.3
20260507104235 12 336 3.2 9.7 0.00 0.00 0.00 31 1015.3
20260507103336 11 300 3.2 8.0 0.00 0.00 0.00 29 1015.3
20260507102436 11 302 3.2 8.0 0.00 0.00 0.00 28 1015.2
20260507101536 11 273 6.4 14.5 0.00 0.00 0.00 30 1015.1
20260507100635 11 187 4.8 14.5 0.00 0.00 0.00 31 1015.0
20260507095736 11 164 4.8 12.9 0.00 0.00 0.00 30 1015.0
20260507095046 12 132 4.8 11.3 0.00 0.00 0.00 27 1014.9
20260507093936 12 71 3.2 9.7 0.00 0.00 0.00 30 1014.9
20260507093036 11 80 4.8 14.5 0.00 0.00 0.00 29 1014.9
20260507092136 11 302 3.2 8.0 0.00 0.00 0.00 35 1014.8
20260507091236 11 289 3.2 8.0 0.00 0.00 0.00 35 1014.9
20260507090336 10 245 4.8 9.7 0.00 0.00 0.00 41 1015.0
20260507085436 10 247 3.2 9.7 0.00 0.00 0.00 39 1014.9
20260507084747 10 245 3.2 9.7 0.00 0.00 0.00 38 1014.9
20260507083636 10 270 3.2 9.7 0.00 0.00 0.00 40 1014.9
20260507082736 11 281 1.6 8.0 0.00 0.00 0.00 46 1014.8
20260507081835 9 281 4.8 9.7 0.00 0.00 0.00 47 1014.6
20260507080936 10 294 1.6 8.0 0.00 0.00 0.00 50 1014.7
20260507080036 8 280 3.2 6.4 0.00 0.00 0.00 54 1014.8
20260507075136 8 294 3.2 6.4 0.00 0.00 0.00 56 1014.8
20260507074236 7 322 3.2 6.4 0.00 0.00 0.00 53 1014.8
20260507073336 8 303 3.2 6.4 0.00 0.00 0.00 57 1014.6
20260507072436 7 304 3.2 4.8 0.00 0.00 0.00 58 1014.6
20260507071746 6 271 3.2 4.8 0.00 0.00 0.00 57 1014.6
20260507070636 6 276 3.2 6.4 0.00 0.00 0.00 59 1014.6
20260507065736 6 291 3.2 4.8 0.00 0.00 0.00 60 1014.6
20260507064836 6 300 1.6 4.8 0.00 0.00 0.00 60 1014.5
20260507063935 6 296 1.6 4.8 0.00 0.00 0.00 59 1014.5
20260507063036 5 271 1.6 4.8 0.00 0.00 0.00 60 1014.3
20260507062135 5 262 1.6 4.8 0.00 0.00 0.00 61 1014.4
20260507061447 5 231 1.6 4.8 0.00 0.00 0.00 60 1014.3
20260507060336 5 132 1.6 3.2 0.00 0.00 0.00 59 1014.2
20260507055436 5 133 1.6 4.8 0.00 0.00 0.00 61 1014.1
20260507054536 5 124 3.2 4.8 0.00 0.00 0.00 59 1014.1
20260507053636 6 130 1.6 4.8 0.00 0.00 0.00 54 1014.0
20260507052736 5 114 1.6 4.8 0.00 0.00 0.00 57 1014.0
20260507051835 5 120 1.6 3.2 0.00 0.00 0.00 57 1014.0
20260507050935 3 252 1.6 4.8 0.00 0.00 0.00 58 1014.0
20260507050036 3 258 0.0 1.6 0.00 0.00 0.00 59 1013.9
20260507045135 3 134 1.6 3.2 0.00 0.00 0.00 60 1013.8
20260507044236 2 134 1.6 3.2 0.00 0.00 0.00 62 1013.8
20260507043336 2 119 3.2 6.4 0.00 0.00 0.00 63 1013.7
20260507042645 2 108 1.6 4.8 0.00 0.00 0.00 63 1013.7
20260507041536 1 104 0.0 3.2 0.00 0.00 0.00 64 1013.5
20260507040845 1 104 0.0 3.2 0.00 0.00 0.00 66 1013.6
20260507035736 0 0 0.0 0.0 0.00 0.00 0.00 71 1013.3
20260507034836 0 103 0.0 3.2 0.00 0.00 0.00 72 1013.3
20260507034147 0 103 0.0 3.2 0.00 0.00 0.00 75 1013.2
20260507033036 -1 103 0.0 1.6 0.00 0.00 0.00 75 1013.2
20260507032136 0 95 1.6 3.2 0.00 0.00 0.00 75 1013.1
20260507031235 -1 89 0.0 3.2 0.00 0.00 0.00 77 1013.0
20260507030336 -2 96 1.6 3.2 0.00 0.00 0.00 80 1012.9
20260507025649 -2 101 1.6 3.2 0.00 0.00 0.00 81 1013.0
20260507024536 -2 101 0.0 1.6 0.00 0.00 0.00 81 1013.1